Location: Newark
(41.6500°N, 71.4833°W)
Time: 05:24:46
(UTC+00:00)

Transit 2A Rocket - Pass Details

Date: 29 January 2020
Orbit: 591 x 911 km, 66.7° (Epoch: 20 February)

Event Time Altitude Azimuth Distance (km) Brightness Sun altitude
Rises 18:22:00 0° 324° (NW) 3,059 7.8 27.4°
Reaches altitude 10° 18:24:18 10° 318° (NW) 2,187 7.2 27.2°
Maximum altitude 18:29:04 48° 245° (WSW) 988 6.6 26.9°
Drops below altitude 10° 18:34:17 10° 173° (S) 2,379 8.6 26.5°
Sets 18:36:53 0° 167° (SSE) 3,357 9.1 26.3°
